Tracking 35048 objects as of 19-Aug-2026
HD Live streaming from Space Station
objects crossing your sky now

TRAILBLAZER


TRAILBLAZER is no longer on orbit
TRAILBLAZER is classified as:


NORAD ID: 39400
Int'l Code: 2013-064W
Launch date: November 20, 2013
Source: United States (US)
Launch site: WALLOPS ISLAND (WLPIS)
Decay date: 2016-05-22

Uplink (MHz):
Downlink (MHz): 437.425
Beacon (MHz):
Mode: 9k6 FSK
Call sign:
Status: Reentered

Your satellite tracking list
Your tracking list is empty




NASA's NSSDC Master Catalog

Two Line Element Set (TLE):
1 39400U 13064W   16143.09732809  .10280108  73207-5  66774-3 0  9990
2 39400  40.4965 142.2962 0002801 117.1246 243.1418 16.40672040139405
Source of the keplerian elements: AFSPC